Flag for Canada Weather past 2 weeks in East Hants, Nova Scotia, Canada

Now
41 °F

Low clouds.


Feels Like: 34 °F
Forecast: 42 / 44 °F
Wind: 13 mph from East

Location: Halifax International Airport

Current Time: Jun 2, 2015 at 8:36:25 AM

Latest Report: Jun 2, 2015 at 8:00 AM


Visibility: 10 mi

Pressure: 30.33 "Hg

Humidity: 93%

Dew point: 39 °F

Location of East HantsLocation

Historic Weather in East Hants — Graph

°F

East Hants temperature yesterday

Maximum temperature yesterday: 48 °F (at 4:00 PM)
Minimum temperature yesterday: 43 °F (at 1:00 AM)
Average temperature yesterday: 44 °F

Past Weeks' High & Low Weather Summary

 TemperatureHumidityPressure
High79 °F (May 25, 1:00 PM)100% (May 20, 2:00 AM)30.39 "Hg (May 20, 2:00 AM)
Low37 °F (May 24, 4:00 AM)24% (May 21, 5:00 PM)29.48 "Hg (May 20, 4:51 PM)
Average54 °F76%30.06 "Hg
* Reported May 18 7:00 AM — Jun 2 7:00 AM, East Hants, Weather by CustomWeather, © 2015

Note: Actual official high and low records may vary slightly from our data, if they occured in-between our weather recording intervals... More about our weather records

Advertising

East Hants weather history for previous 24 hours

 ConditionsComfort  
Time TempWeatherWind HumidityBarometerVisibility
7:00 AM
Tue, Jun 2
41 °FLight rain. Low clouds.9 mph93%30.33 "Hg10 mi
6:00 AM41 °FLight rain. Mostly cloudy.8 mph100%30.33 "Hg10 mi
5:00 AM41 °FLight rain. Mostly cloudy.7 mph100%30.34 "Hg12 mi
4:00 AM41 °FOvercast.8 mph93%30.33 "Hg15 mi
3:00 AM41 °FOvercast.8 mph93%30.34 "Hg15 mi
2:00 AM43 °FOvercast.6 mph93%30.36 "Hg15 mi
1:00 AM43 °FOvercast.6 mph87%30.36 "Hg15 mi
12:00 AM43 °FLight rain. Overcast.6 mph93%30.38 "Hg15 mi
11:00 PM
Mon, Jun 1
43 °FLight rain. Overcast.8 mph93%30.38 "Hg15 mi
10:00 PM45 °FLight rain. Mostly cloudy.6 mph93%30.39 "Hg15 mi
9:00 PM45 °FLight rain. Mostly cloudy.6 mph93%30.38 "Hg15 mi
8:00 PM45 °FLight rain. More clouds than sun.7 mph93%30.37 "Hg15 mi
7:00 PM45 °FLight rain. More clouds than sun.10 mph93%30.37 "Hg15 mi
6:00 PM45 °FLight rain. Cloudy.12 mph93%30.36 "Hg10 mi
5:00 PM46 °FLight rain. Mostly cloudy.12 mph93%30.36 "Hg10 mi
4:00 PM48 °FLight rain. Mostly cloudy.7 mph87%30.35 "Hg10 mi
3:00 PM46 °FLight rain. Mostly cloudy.8 mph93%30.37 "Hg10 mi
2:00 PM46 °FSprinkles. Fog.10 mph93%30.37 "Hg6 mi
1:00 PM46 °FSprinkles. Fog.10 mph87%30.37 "Hg6 mi
12:00 PM45 °FSprinkles. Fog.7 mph93%30.37 "Hg6 mi
11:00 AM45 °FSprinkles. Fog.13 mph93%30.36 "Hg6 mi
10:00 AM45 °FSprinkles. Overcast.9 mph93%30.36 "Hg10 mi
9:00 AM45 °FSprinkles. Low clouds.7 mph93%30.35 "Hg10 mi
8:00 AM43 °FFog.6 mph100%30.34 "Hg6 mi
Weather by CustomWeather, © 2015

See weather overviewHow to use our weather pages